Time,TemperatureF,DewpointF,PressureIn,WindDirection,WindDirectionDegrees,WindSpeedMPH,WindSpeedGustMPH,Humidity,HourlyPrecipIn,Conditions,Clouds,dailyrainin,SoftwareType,DateUTC
2013-04-24 00:05:00,39.6,38.3,30.18,North,355,0.0,0.0,95,0.00,,,0.00,Wunderground v.1.15,2013-04-24 04:05:00,
2013-04-24 00:20:00,39.8,38.5,30.17,North,355,0.0,0.0,95,0.00,,,0.00,Wunderground v.1.15,2013-04-24 04:20:00,
2013-04-24 00:30:00,40.0,38.7,30.16,North,355,0.0,1.0,95,0.00,,,0.00,Wunderground v.1.15,2013-04-24 04:30:00,
2013-04-24 00:35:00,40.1,38.8,30.15,North,355,0.0,1.0,95,0.00,,,0.00,Wunderground v.1.15,2013-04-24 04:35:00,
2013-04-24 00:40:00,40.2,38.9,30.15,NNW,337,1.0,1.0,95,0.00,,,0.00,Wunderground v.1.15,2013-04-24 04:40:00,
2013-04-24 00:50:00,40.3,39.0,30.14,NNW,337,0.0,0.0,95,0.00,,,0.00,Wunderground v.1.15,2013-04-24 04:50:00,
2013-04-24 00:55:00,40.4,39.1,30.13,NNW,337,0.0,0.0,95,0.00,,,0.00,Wunderground v.1.15,2013-04-24 04:55:00,
2013-04-24 01:05:00,40.5,39.2,30.12,NNW,337,0.0,0.0,95,0.00,,,0.00,Wunderground v.1.15,2013-04-24 05:05:00,
2013-04-24 01:15:00,40.6,39.3,30.12,NNW,337,0.0,1.0,95,0.00,,,0.00,Wunderground v.1.15,2013-04-24 05:15:00,
2013-04-24 01:20:00,40.7,39.4,30.12,NNW,337,0.0,0.0,95,0.00,,,0.00,Wunderground v.1.15,2013-04-24 05:20:00,
2013-04-24 01:25:00,40.7,39.4,30.11,NNW,337,0.0,0.0,95,0.00,,,0.00,Wunderground v.1.15,2013-04-24 05:25:00,
2013-04-24 01:35:00,40.7,39.1,30.10,NNW,337,0.0,0.0,94,0.00,,,0.00,Wunderground v.1.15,2013-04-24 05:35:00,
2013-04-24 01:40:00,40.8,39.5,30.10,NNW,337,0.0,0.0,95,0.00,,,0.00,Wunderground v.1.15,2013-04-24 05:40:00,
2013-04-24 01:50:00,40.8,39.5,30.10,NNW,337,0.0,0.0,95,0.00,,,0.00,Wunderground v.1.15,2013-04-24 05:50:00,
2013-04-24 01:55:00,40.9,39.6,30.10,NNW,337,0.0,0.0,95,0.00,,,0.00,Wunderground v.1.15,2013-04-24 05:55:00,
2013-04-24 02:05:00,40.9,39.6,30.09,NNW,337,0.0,0.0,95,0.00,,,0.00,Wunderground v.1.15,2013-04-24 06:05:00,
2013-04-24 02:15:00,40.9,39.6,30.09,NNW,337,0.0,0.0,95,0.00,,,0.00,Wunderground v.1.15,2013-04-24 06:15:00,
2013-04-24 02:20:00,40.9,39.6,30.09,NNW,337,0.0,0.0,95,0.00,,,0.00,Wunderground v.1.15,2013-04-24 06:20:00,
2013-04-24 02:25:00,40.9,39.6,30.08,NNW,337,0.0,0.0,95,0.00,,,0.00,Wunderground v.1.15,2013-04-24 06:25:00,
2013-04-24 02:35:00,41.0,39.7,30.08,NNW,337,0.0,0.0,95,0.00,,,0.00,Wunderground v.1.15,2013-04-24 06:35:00,
2013-04-24 02:40:00,41.0,39.7,30.07,NNW,337,0.0,0.0,95,0.00,,,0.00,Wunderground v.1.15,2013-04-24 06:40:00,
2013-04-24 02:50:00,41.2,39.9,30.07,NNW,337,0.0,0.0,95,0.00,,,0.00,Wunderground v.1.15,2013-04-24 06:50:00,
2013-04-24 02:55:00,41.4,40.1,30.07,NNW,337,0.0,0.0,95,0.00,,,0.00,Wunderground v.1.15,2013-04-24 06:55:00,
2013-04-24 03:05:00,41.5,40.2,30.07,NNW,337,0.0,0.0,95,0.00,,,0.00,Wunderground v.1.15,2013-04-24 07:05:00,
2013-04-24 03:15:00,41.6,40.3,30.06,NNW,337,0.0,0.0,95,0.00,,,0.00,Wunderground v.1.15,2013-04-24 07:15:00,
2013-04-24 03:20:00,41.6,40.3,30.06,NNW,337,0.0,0.0,95,0.00,,,0.00,Wunderground v.1.15,2013-04-24 07:20:00,
2013-04-24 03:25:00,41.7,40.4,30.06,NNW,337,0.0,0.0,95,0.00,,,0.00,Wunderground v.1.15,2013-04-24 07:25:00,
2013-04-24 03:35:00,41.8,40.5,30.06,NNW,337,0.0,0.0,95,0.00,,,0.00,Wunderground v.1.15,2013-04-24 07:35:00,
2013-04-24 03:45:00,42.3,41.0,30.05,NNW,337,0.0,2.0,95,0.00,,,0.00,Wunderground v.1.15,2013-04-24 07:45:00,
2013-04-24 03:50:00,42.5,40.9,30.05,NNW,337,0.0,0.0,94,0.00,,,0.00,Wunderground v.1.15,2013-04-24 07:50:00,
2013-04-24 03:55:00,42.6,41.0,30.05,NNW,337,0.0,0.0,94,0.00,,,0.00,Wunderground v.1.15,2013-04-24 07:55:00,
2013-04-24 04:05:00,42.9,41.0,30.04,NNW,337,0.0,2.0,93,0.00,,,0.00,Wunderground v.1.15,2013-04-24 08:05:00,
2013-04-24 04:15:00,43.1,41.2,30.04,NNW,337,0.0,0.0,93,0.00,,,0.00,Wunderground v.1.15,2013-04-24 08:15:00,
2013-04-24 04:20:00,43.1,41.2,30.03,NNW,337,0.0,0.0,93,0.00,,,0.00,Wunderground v.1.15,2013-04-24 08:20:00,
2013-04-24 04:25:00,43.1,41.2,30.03,NNW,337,0.0,0.0,93,0.00,,,0.00,Wunderground v.1.15,2013-04-24 08:25:00,
2013-04-24 04:35:00,43.1,41.2,30.03,NNW,337,0.0,0.0,93,0.00,,,0.00,Wunderground v.1.15,2013-04-24 08:35:00,
2013-04-24 04:40:00,43.2,41.3,30.02,North,355,0.0,0.0,93,0.00,,,0.00,Wunderground v.1.15,2013-04-24 08:40:00,
2013-04-24 04:45:00,43.1,40.9,30.02,North,360,0.0,0.0,92,0.00,,,0.00,Wunderground v.1.15,2013-04-24 08:45:00,
2013-04-24 04:55:00,43.1,40.9,30.03,North,9,0.0,0.0,92,0.00,,,0.00,Wunderground v.1.15,2013-04-24 08:55:00,
2013-04-24 05:00:00,43.2,41.0,30.03,North,9,0.0,2.0,92,0.00,,,0.00,Wunderground v.1.15,2013-04-24 09:00:00,
2013-04-24 05:05:00,43.2,41.0,30.03,North,360,1.0,2.0,92,0.00,,,0.00,Wunderground v.1.15,2013-04-24 09:05:00,
2013-04-24 05:15:00,43.2,41.0,30.03,North,355,0.0,1.0,92,0.00,,,0.00,Wunderground v.1.15,2013-04-24 09:15:00,
2013-04-24 05:25:00,43.2,41.0,30.03,NNW,342,1.0,1.0,92,0.00,,,0.00,Wunderground v.1.15,2013-04-24 09:25:00,
2013-04-24 05:30:00,43.2,41.0,30.03,North,355,0.0,2.0,92,0.00,,,0.00,Wunderground v.1.15,2013-04-24 09:30:00,
2013-04-24 05:40:00,43.4,41.2,30.03,North,355,1.0,1.0,92,0.00,,,0.00,Wunderground v.1.15,2013-04-24 09:40:00,
2013-04-24 05:45:00,43.6,41.4,30.03,North,355,1.0,1.0,92,0.00,,,0.00,Wunderground v.1.15,2013-04-24 09:45:00,
2013-04-24 05:50:00,43.7,41.2,30.03,North,355,1.0,1.0,91,0.00,,,0.00,Wunderground v.1.15,2013-04-24 09:50:00,
2013-04-24 06:00:00,43.5,41.0,30.03,North,355,1.0,3.0,91,0.00,,,0.00,Wunderground v.1.15,2013-04-24 10:00:00,
2013-04-24 06:05:00,43.3,40.6,30.03,NNW,341,2.0,3.0,90,0.00,,,0.00,Wunderground v.1.15,2013-04-24 10:05:00,
2013-04-24 06:15:00,43.1,40.4,30.02,North,355,1.0,2.0,90,0.00,,,0.00,Wunderground v.1.15,2013-04-24 10:15:00,
2013-04-24 06:25:00,42.8,40.1,30.03,North,355,0.0,1.0,90,0.00,,,0.00,Wunderground v.1.15,2013-04-24 10:25:00,
2013-04-24 06:30:00,42.7,40.0,30.03,North,355,0.0,0.0,90,0.00,,,0.00,Wunderground v.1.15,2013-04-24 10:30:00,
2013-04-24 06:40:00,42.4,40.0,30.02,North,355,0.0,0.0,91,0.00,,,0.00,Wunderground v.1.15,2013-04-24 10:40:00,
2013-04-24 06:45:00,42.3,39.9,30.02,North,355,0.0,0.0,91,0.00,,,0.00,Wunderground v.1.15,2013-04-24 10:45:00,
2013-04-24 06:55:00,42.3,39.9,30.01,North,355,0.0,0.0,91,0.00,,,0.00,Wunderground v.1.15,2013-04-24 10:55:00,
2013-04-24 07:00:00,42.4,40.0,30.01,North,355,1.0,1.0,91,0.00,,,0.00,Wunderground v.1.15,2013-04-24 11:00:00,
2013-04-24 07:05:00,42.5,40.1,30.01,North,355,0.0,1.0,91,0.00,,,0.00,Wunderground v.1.15,2013-04-24 11:05:00,
2013-04-24 07:15:00,42.7,40.3,30.01,North,355,0.0,0.0,91,0.00,,,0.00,Wunderground v.1.15,2013-04-24 11:15:00,
2013-04-24 07:25:00,43.0,40.3,30.01,North,355,0.0,0.0,90,0.00,,,0.00,Wunderground v.1.15,2013-04-24 11:25:00,
2013-04-24 07:30:00,43.2,40.2,30.01,WNW,301,1.0,1.0,89,0.00,,,0.00,Wunderground v.1.15,2013-04-24 11:30:00,
2013-04-24 07:40:00,43.4,40.4,30.01,North,355,1.0,1.0,89,0.00,,,0.00,Wunderground v.1.15,2013-04-24 11:40:00,
2013-04-24 07:45:00,43.4,40.1,30.01,North,355,1.0,1.0,88,0.00,,,0.00,Wunderground v.1.15,2013-04-24 11:45:00,
2013-04-24 07:55:00,43.4,40.1,30.00,North,5,1.0,1.0,88,0.00,,,0.00,Wunderground v.1.15,2013-04-24 11:55:00,
2013-04-24 08:00:00,43.3,40.0,30.00,NNE,14,1.0,1.0,88,0.00,,,0.00,Wunderground v.1.15,2013-04-24 12:00:00,
2013-04-24 08:05:00,43.3,40.0,30.00,WNW,297,1.0,1.0,88,0.00,,,0.00,Wunderground v.1.15,2013-04-24 12:05:00,
2013-04-24 08:15:00,43.9,40.6,29.99,NNE,20,1.0,1.0,88,0.00,,,0.00,Wunderground v.1.15,2013-04-24 12:15:00,
2013-04-24 08:20:00,44.2,40.9,29.99,NNE,20,1.0,1.0,88,0.00,,,0.00,Wunderground v.1.15,2013-04-24 12:20:00,
2013-04-24 08:25:00,44.4,40.8,29.99,NNW,342,0.0,1.0,87,0.00,,,0.00,Wunderground v.1.15,2013-04-24 12:25:00,
2013-04-24 08:30:00,44.6,40.7,30.00,NNW,342,0.0,0.0,86,0.00,,,0.00,Wunderground v.1.15,2013-04-24 12:30:00,
2013-04-24 08:40:00,45.0,41.1,30.00,WNW,298,2.0,2.0,86,0.00,,,0.00,Wunderground v.1.15,2013-04-24 12:40:00,
2013-04-24 08:45:00,45.5,41.3,29.99,NNW,348,2.0,2.0,85,0.00,,,0.00,Wunderground v.1.15,2013-04-24 12:45:00,
2013-04-24 08:55:00,46.7,41.8,29.99,SW,219,1.0,2.0,83,0.00,,,0.00,Wunderground v.1.15,2013-04-24 12:55:00,
2013-04-24 09:00:00,47.3,42.1,29.99,SSW,197,1.0,1.0,82,0.00,,,0.00,Wunderground v.1.15,2013-04-24 13:00:00,
2013-04-24 09:05:00,48.1,42.5,29.99,WSW,252,1.0,1.0,81,0.00,,,0.00,Wunderground v.1.15,2013-04-24 13:05:00,
2013-04-24 09:15:00,49.2,43.0,29.98,West,278,1.0,1.0,79,0.00,,,0.00,Wunderground v.1.15,2013-04-24 13:15:00,
2013-04-24 09:25:00,51.6,43.9,29.97,SSW,208,0.0,1.0,75,0.00,,,0.00,Wunderground v.1.15,2013-04-24 13:25:00,
2013-04-24 09:30:00,52.4,44.4,29.96,WSW,250,1.0,1.0,74,0.00,,,0.00,Wunderground v.1.15,2013-04-24 13:30:00,
2013-04-24 09:40:00,53.5,44.3,29.96,South,184,1.0,1.0,71,0.00,,,0.00,Wunderground v.1.15,2013-04-24 13:40:00,
2013-04-24 09:45:00,54.2,44.6,29.96,WNW,299,1.0,2.0,70,0.00,,,0.00,Wunderground v.1.15,2013-04-24 13:45:00,
2013-04-24 09:55:00,55.1,45.9,29.95,North,360,1.0,3.0,71,0.00,,,0.00,Wunderground v.1.15,2013-04-24 13:55:00,
2013-04-24 10:00:00,55.6,45.6,29.95,SW,229,1.0,1.0,69,0.00,,,0.00,Wunderground v.1.15,2013-04-24 14:00:00,
2013-04-24 10:05:00,56.2,45.0,29.94,SSW,213,1.0,5.0,66,0.00,,,0.00,Wunderground v.1.15,2013-04-24 14:05:00,
2013-04-24 10:15:00,56.6,45.4,29.94,South,187,2.0,4.0,66,0.00,,,0.00,Wunderground v.1.15,2013-04-24 14:15:00,
2013-04-24 10:25:00,57.5,45.4,29.93,SSE,154,2.0,5.0,64,0.00,,,0.00,Wunderground v.1.15,2013-04-24 14:25:00,
2013-04-24 10:30:00,57.9,45.8,29.93,SW,217,3.0,3.0,64,0.00,,,0.00,Wunderground v.1.15,2013-04-24 14:30:00,
2013-04-24 10:40:00,59.0,46.4,29.92,SSE,165,1.0,1.0,63,0.00,,,0.00,Wunderground v.1.15,2013-04-24 14:40:00,
2013-04-24 10:45:00,59.4,46.4,29.92,SW,217,2.0,2.0,62,0.00,,,0.00,Wunderground v.1.15,2013-04-24 14:45:00,
2013-04-24 10:55:00,59.3,46.3,29.91,SSW,198,2.0,3.0,62,0.00,,,0.00,Wunderground v.1.15,2013-04-24 14:55:00,
2013-04-24 11:00:00,59.8,46.7,29.91,SSW,204,2.0,3.0,62,0.00,,,0.00,Wunderground v.1.15,2013-04-24 15:00:00,
2013-04-24 11:05:00,60.6,47.1,29.91,SSW,198,2.0,3.0,61,0.00,,,0.00,Wunderground v.1.15,2013-04-24 15:05:00,
2013-04-24 11:15:00,61.5,47.5,29.91,SW,230,2.0,2.0,60,0.00,,,0.00,Wunderground v.1.15,2013-04-24 15:15:00,
2013-04-24 11:25:00,62.4,47.4,29.90,SSW,209,1.0,2.0,58,0.00,,,0.00,Wunderground v.1.15,2013-04-24 15:25:00,
2013-04-24 11:30:00,62.3,47.8,29.90,SSW,205,1.0,1.0,59,0.00,,,0.00,Wunderground v.1.15,2013-04-24 15:30:00,
2013-04-24 11:40:00,63.2,47.7,29.89,South,186,1.0,1.0,57,0.00,,,0.00,Wunderground v.1.15,2013-04-24 15:40:00,
2013-04-24 11:45:00,63.9,48.8,29.89,South,184,1.0,2.0,58,0.00,,,0.00,Wunderground v.1.15,2013-04-24 15:45:00,
2013-04-24 11:55:00,64.4,48.4,29.88,South,190,2.0,2.0,56,0.00,,,0.00,Wunderground v.1.15,2013-04-24 15:55:00,
2013-04-24 12:00:00,64.3,48.3,29.88,SSE,164,2.0,3.0,56,0.00,,,0.00,Wunderground v.1.15,2013-04-24 16:00:00,
2013-04-24 12:05:00,64.3,48.3,29.88,SSW,199,2.0,3.0,56,0.00,,,0.00,Wunderground v.1.15,2013-04-24 16:05:00,
2013-04-24 12:15:00,65.1,49.0,29.87,South,174,3.0,4.0,56,0.00,,,0.00,Wunderground v.1.15,2013-04-24 16:15:00,
2013-04-24 12:20:00,65.8,50.1,29.87,SSW,201,3.0,7.0,57,0.00,,,0.00,Wunderground v.1.15,2013-04-24 16:20:00,
2013-04-24 12:30:00,66.6,49.9,29.86,South,178,3.0,3.0,55,0.00,,,0.00,Wunderground v.1.15,2013-04-24 16:30:00,
2013-04-24 12:35:00,66.6,48.9,29.85,SSW,199,2.0,3.0,53,0.00,,,0.00,Wunderground v.1.15,2013-04-24 16:35:00,
2013-04-24 12:45:00,67.1,49.9,29.85,SSW,195,2.0,4.0,54,0.00,,,0.00,Wunderground v.1.15,2013-04-24 16:45:00,
2013-04-24 12:50:00,67.4,49.2,29.84,SSE,167,1.0,1.0,52,0.00,,,0.00,Wunderground v.1.15,2013-04-24 16:50:00,
2013-04-24 12:55:00,67.8,49.5,29.84,South,175,1.0,1.0,52,0.00,,,0.00,Wunderground v.1.15,2013-04-24 16:55:00,
2013-04-24 13:05:00,68.0,49.2,29.84,SSE,155,1.0,1.0,51,0.00,,,0.00,Wunderground v.1.15,2013-04-24 17:05:00,
2013-04-24 13:15:00,68.5,48.6,29.83,South,187,2.0,5.0,49,0.00,,,0.00,Wunderground v.1.15,2013-04-24 17:15:00,
2013-04-24 13:20:00,69.0,49.6,29.83,South,175,3.0,3.0,50,0.00,,,0.00,Wunderground v.1.15,2013-04-24 17:20:00,
2013-04-24 13:30:00,69.6,48.5,29.82,South,186,3.0,3.0,47,0.00,,,0.00,Wunderground v.1.15,2013-04-24 17:30:00,
2013-04-24 13:35:00,70.1,47.8,29.82,SSW,195,1.0,3.0,45,0.00,,,0.00,Wunderground v.1.15,2013-04-24 17:35:00,
2013-04-24 13:45:00,70.5,47.5,29.81,SSW,205,3.0,5.0,44,0.00,,,0.00,Wunderground v.1.15,2013-04-24 17:45:00,
2013-04-24 13:50:00,70.6,47.0,29.81,South,189,3.0,3.0,43,0.00,,,0.00,Wunderground v.1.15,2013-04-24 17:50:00,
2013-04-24 14:00:00,71.0,46.7,29.79,SSW,213,3.0,4.0,42,0.00,,,0.00,Wunderground v.1.15,2013-04-24 18:00:00,
2013-04-24 14:05:00,71.1,46.2,29.79,SSW,195,3.0,4.0,41,0.00,,,0.00,Wunderground v.1.15,2013-04-24 18:05:00,
2013-04-24 14:15:00,72.1,40.6,29.79,SW,215,1.0,2.0,32,0.00,,,0.00,Wunderground v.1.15,2013-04-24 18:15:00,
2013-04-24 14:25:00,72.9,39.6,29.78,WSW,256,1.0,1.0,30,0.00,,,0.00,Wunderground v.1.15,2013-04-24 18:25:00,
2013-04-24 14:35:00,73.1,37.1,29.78,NW,311,1.0,1.0,27,0.00,,,0.00,Wunderground v.1.15,2013-04-24 18:35:00,
2013-04-24 14:40:00,73.2,39.9,29.78,SSW,207,1.0,4.0,30,0.00,,,0.00,Wunderground v.1.15,2013-04-24 18:40:00,
2013-04-24 14:45:00,73.5,41.8,29.77,SSW,198,2.0,4.0,32,0.00,,,0.00,Wunderground v.1.15,2013-04-24 18:45:00,
2013-04-24 14:55:00,73.5,41.8,29.76,NW,324,2.0,2.0,32,0.00,,,0.00,Wunderground v.1.15,2013-04-24 18:55:00,
2013-04-24 15:00:00,73.2,40.7,29.76,NNW,346,1.0,1.0,31,0.00,,,0.00,Wunderground v.1.15,2013-04-24 19:00:00,
2013-04-24 15:05:00,73.5,43.4,29.76,NNE,17,1.0,1.0,34,0.00,,,0.00,Wunderground v.1.15,2013-04-24 19:05:00,
2013-04-24 15:15:00,74.2,44.0,29.75,South,187,2.0,5.0,34,0.00,,,0.00,Wunderground v.1.15,2013-04-24 19:15:00,
2013-04-24 15:20:00,74.1,43.1,29.75,WNW,292,3.0,3.0,33,0.00,,,0.00,Wunderground v.1.15,2013-04-24 19:20:00,
2013-04-24 15:30:00,74.7,44.5,29.75,SW,221,0.0,0.0,34,0.00,,,0.00,Wunderground v.1.15,2013-04-24 19:30:00,
2013-04-24 15:35:00,75.0,44.7,29.76,SE,146,1.0,5.0,34,0.00,,,0.00,Wunderground v.1.15,2013-04-24 19:35:00,
2013-04-24 15:45:00,75.0,44.7,29.75,SW,224,3.0,3.0,34,0.00,,,0.00,Wunderground v.1.15,2013-04-24 19:45:00,
2013-04-24 15:55:00,74.9,43.8,29.76,South,186,3.0,4.0,33,0.00,,,0.00,Wunderground v.1.15,2013-04-24 19:55:00,
2013-04-24 16:00:00,74.9,45.4,29.75,SSE,165,3.0,4.0,35,0.00,,,0.00,Wunderground v.1.15,2013-04-24 20:00:00,
2013-04-24 16:05:00,75.1,45.6,29.75,South,171,3.0,4.0,35,0.00,,,0.00,Wunderground v.1.15,2013-04-24 20:05:00,
2013-04-24 16:15:00,74.4,40.9,29.75,West,269,4.0,5.0,30,0.00,,,0.00,Wunderground v.1.15,2013-04-24 20:15:00,
2013-04-24 16:25:00,73.1,39.8,29.75,SSW,195,4.0,4.0,30,0.00,,,0.00,Wunderground v.1.15,2013-04-24 20:25:00,
2013-04-24 16:30:00,73.7,39.5,29.75,SSW,200,3.0,3.0,29,0.00,,,0.00,Wunderground v.1.15,2013-04-24 20:30:00,
2013-04-24 16:40:00,74.5,39.2,29.74,SSW,213,3.0,6.0,28,0.00,,,0.00,Wunderground v.1.15,2013-04-24 20:40:00,
2013-04-24 16:50:00,74.8,39.5,29.74,SSW,195,3.0,3.0,28,0.00,,,0.00,Wunderground v.1.15,2013-04-24 20:50:00,
2013-04-24 16:55:00,74.8,38.6,29.74,SSE,167,4.0,6.0,27,0.00,,,0.00,Wunderground v.1.15,2013-04-24 20:55:00,
2013-04-24 17:05:00,74.7,39.4,29.74,SSW,193,4.0,8.0,28,0.00,,,0.00,Wunderground v.1.15,2013-04-24 21:05:00,
2013-04-24 17:15:00,74.5,39.2,29.74,SW,221,3.0,4.0,28,0.00,,,0.00,Wunderground v.1.15,2013-04-24 21:15:00,
2013-04-24 17:20:00,74.6,40.2,29.73,SSE,157,3.0,4.0,29,0.00,,,0.00,Wunderground v.1.15,2013-04-24 21:20:00,
2013-04-24 17:30:00,74.6,41.1,29.73,SSW,209,4.0,4.0,30,0.00,,,0.00,Wunderground v.1.15,2013-04-24 21:30:00,
2013-04-24 17:35:00,74.3,40.8,29.73,SSE,163,4.0,6.0,30,0.00,,,0.00,Wunderground v.1.15,2013-04-24 21:35:00,
2013-04-24 17:45:00,73.8,42.9,29.73,SW,215,4.0,6.0,33,0.00,,,0.00,Wunderground v.1.15,2013-04-24 21:45:00,
2013-04-24 17:55:00,73.3,43.2,29.73,South,180,5.0,6.0,34,0.00,,,0.00,Wunderground v.1.15,2013-04-24 21:55:00,
2013-04-24 18:00:00,73.1,42.3,29.73,SSW,210,6.0,9.0,33,0.00,,,0.00,Wunderground v.1.15,2013-04-24 22:00:00,
2013-04-24 18:05:00,72.9,42.1,29.73,WSW,242,4.0,10.0,33,0.00,,,0.00,Wunderground v.1.15,2013-04-24 22:05:00,
2013-04-24 18:15:00,72.5,42.5,29.73,SSW,206,4.0,4.0,34,0.00,,,0.00,Wunderground v.1.15,2013-04-24 22:15:00,
2013-04-24 18:25:00,72.0,43.6,29.73,South,191,3.0,3.0,36,0.00,,,0.00,Wunderground v.1.15,2013-04-24 22:25:00,
2013-04-24 18:30:00,71.2,42.9,29.73,South,186,2.0,3.0,36,0.00,,,0.00,Wunderground v.1.15,2013-04-24 22:30:00,
2013-04-24 18:35:00,71.0,42.7,29.73,South,179,2.0,10.0,36,0.00,,,0.00,Wunderground v.1.15,2013-04-24 22:35:00,
2013-04-24 18:45:00,70.6,42.3,29.73,SSW,209,4.0,4.0,36,0.00,,,0.00,Wunderground v.1.15,2013-04-24 22:45:00,
2013-04-24 18:50:00,70.2,42.7,29.73,SSW,208,3.0,3.0,37,0.00,,,0.00,Wunderground v.1.15,2013-04-24 22:50:00,
2013-04-24 19:00:00,69.4,43.4,29.73,SSW,213,1.0,1.0,39,0.00,,,0.00,Wunderground v.1.15,2013-04-24 23:00:00,
2013-04-24 19:05:00,69.2,43.8,29.73,SSW,207,1.0,2.0,40,0.00,,,0.00,Wunderground v.1.15,2013-04-24 23:05:00,
2013-04-24 19:15:00,68.9,43.6,29.73,SSW,198,3.0,4.0,40,0.00,,,0.00,Wunderground v.1.15,2013-04-24 23:15:00,
2013-04-24 19:20:00,68.9,44.2,29.72,SSW,204,3.0,10.0,41,0.00,,,0.00,Wunderground v.1.15,2013-04-24 23:20:00,
2013-04-24 19:25:00,68.8,44.1,29.72,SSW,197,4.0,10.0,41,0.00,,,0.00,Wunderground v.1.15,2013-04-24 23:25:00,
2013-04-24 19:35:00,68.2,44.2,29.73,SSW,198,2.0,4.0,42,0.00,,,0.00,Wunderground v.1.15,2013-04-24 23:35:00,
2013-04-24 19:40:00,67.8,44.5,29.73,SSW,196,2.0,2.0,43,0.00,,,0.00,Wunderground v.1.15,2013-04-24 23:40:00,
2013-04-24 19:45:00,67.5,44.8,29.73,SSW,206,3.0,3.0,44,0.00,,,0.00,Wunderground v.1.15,2013-04-24 23:45:00,
2013-04-24 19:55:00,66.4,45.0,29.73,South,181,2.0,3.0,46,0.00,,,0.00,Wunderground v.1.15,2013-04-24 23:55:00,
2013-04-24 20:05:00,65.4,45.2,29.73,SSW,198,2.0,3.0,48,0.00,,,0.00,Wunderground v.1.15,2013-04-25 00:05:00,
2013-04-24 20:15:00,65.4,44.1,29.73,South,186,1.0,4.0,46,0.00,,,0.00,Wunderground v.1.15,2013-04-25 00:15:00,
2013-04-24 20:20:00,65.5,44.2,29.73,SSW,194,1.0,1.0,46,0.00,,,0.00,Wunderground v.1.15,2013-04-25 00:20:00,
2013-04-24 20:25:00,65.5,44.2,29.73,SSW,198,2.0,2.0,46,0.00,,,0.00,Wunderground v.1.15,2013-04-25 00:25:00,
2013-04-24 20:35:00,64.7,45.1,29.73,SSW,211,1.0,3.0,49,0.00,,,0.00,Wunderground v.1.15,2013-04-25 00:35:00,
2013-04-24 20:45:00,63.1,44.7,29.73,WSW,254,0.0,0.0,51,0.00,,,0.00,Wunderground v.1.15,2013-04-25 00:45:00,
2013-04-24 20:55:00,62.3,45.4,29.73,SSW,203,0.0,1.0,54,0.00,,,0.00,Wunderground v.1.15,2013-04-25 00:55:00,
2013-04-24 21:00:00,61.8,45.5,29.73,SW,223,1.0,1.0,55,0.00,,,0.00,Wunderground v.1.15,2013-04-25 01:00:00,
2013-04-24 21:05:00,61.4,45.6,29.73,SW,224,0.0,1.0,56,0.00,,,0.00,Wunderground v.1.15,2013-04-25 01:05:00,
2013-04-24 21:15:00,60.9,44.6,29.73,SW,217,0.0,0.0,55,0.00,,,0.00,Wunderground v.1.15,2013-04-25 01:15:00,
2013-04-24 21:25:00,61.8,45.5,29.74,SSW,209,0.0,0.0,55,0.00,,,0.00,Wunderground v.1.15,2013-04-25 01:25:00,
2013-04-24 21:30:00,62.0,46.1,29.74,South,175,0.0,4.0,56,0.00,,,0.00,Wunderground v.1.15,2013-04-25 01:30:00,
2013-04-24 21:40:00,63.5,46.6,29.74,SSW,209,2.0,4.0,54,0.00,,,0.00,Wunderground v.1.15,2013-04-25 01:40:00,
2013-04-24 21:45:00,64.0,46.0,29.74,South,185,3.0,4.0,52,0.00,,,0.00,Wunderground v.1.15,2013-04-25 01:45:00,
2013-04-24 21:50:00,64.4,45.9,29.75,SSW,211,2.0,2.0,51,0.00,,,0.00,Wunderground v.1.15,2013-04-25 01:50:00,
2013-04-24 22:00:00,64.2,45.7,29.75,WSW,240,0.0,0.0,51,0.00,,,0.00,Wunderground v.1.15,2013-04-25 02:00:00,
2013-04-24 22:05:00,63.8,45.8,29.75,SSW,192,1.0,2.0,52,0.00,,,0.00,Wunderground v.1.15,2013-04-25 02:05:00,
2013-04-24 22:15:00,63.6,46.1,29.74,SW,227,4.0,10.0,53,0.00,,,0.00,Wunderground v.1.15,2013-04-25 02:15:00,
2013-04-24 22:25:00,63.2,46.3,29.73,SSW,196,2.0,4.0,54,0.00,,,0.00,Wunderground v.1.15,2013-04-25 02:25:00,
2013-04-24 22:30:00,63.1,46.2,29.73,South,179,3.0,3.0,54,0.00,,,0.00,Wunderground v.1.15,2013-04-25 02:30:00,
2013-04-24 22:40:00,62.9,46.0,29.73,South,176,3.0,4.0,54,0.00,,,0.00,Wunderground v.1.15,2013-04-25 02:40:00,
2013-04-24 22:45:00,62.7,46.3,29.74,SW,218,2.0,4.0,55,0.00,,,0.00,Wunderground v.1.15,2013-04-25 02:45:00,
2013-04-24 22:50:00,62.5,46.6,29.73,South,169,2.0,2.0,56,0.00,,,0.00,Wunderground v.1.15,2013-04-25 02:50:00,
2013-04-24 23:00:00,62.0,46.6,29.73,South,175,0.0,0.0,57,0.00,,,0.00,Wunderground v.1.15,2013-04-25 03:00:00,
2013-04-24 23:05:00,61.6,47.1,29.72,SW,232,1.0,3.0,59,0.00,,,0.00,Wunderground v.1.15,2013-04-25 03:05:00,
2013-04-24 23:15:00,61.7,48.1,29.72,SW,224,2.0,5.0,61,0.00,,,0.00,Wunderground v.1.15,2013-04-25 03:15:00,
2013-04-24 23:25:00,61.4,48.7,29.72,SSE,166,3.0,4.0,63,0.00,,,0.00,Wunderground v.1.15,2013-04-25 03:25:00,
2013-04-24 23:30:00,61.4,48.7,29.73,SSW,210,3.0,3.0,63,0.00,,,0.00,Wunderground v.1.15,2013-04-25 03:30:00,
2013-04-24 23:35:00,61.4,49.1,29.72,SSW,195,4.0,4.0,64,0.00,,,0.00,Wunderground v.1.15,2013-04-25 03:35:00,
2013-04-24 23:45:00,61.2,48.9,29.73,SSW,210,5.0,5.0,64,0.00,,,0.00,Wunderground v.1.15,2013-04-25 03:45:00,
2013-04-24 23:50:00,61.1,49.2,29.73,SSW,210,4.0,4.0,65,0.00,,,0.00,Wunderground v.1.15,2013-04-25 03:50:00,